Wind_Speed
12 10 13 11 11 13 13 13 14 15 20 21 21 18 18 16 24 29 35 41 39 30 28 34 40 47 52 46 42 38 36 33 35 35 31 29 30 33 34 33 33 33 32
11 9 11 11 11 12 12 12 16 21 23 24 26 25 20 20 21 25 27 32 35 31 28 26 21 39 43 36 37 31 31 32 31 31 30 31 33 33 34 34 32 29 28
12 8 8 11 9 9 11 12 14 20 15 15 25 24 19 17 21 27 29 28 23 23 20 17 18 24 24 27 26 27 29 28 28 29 30 34 32 35 33 33 31 31 29
12 9 7 9 5 7 10 10 12 13 14 2 13 16 17 17 22 17 19 21 21 22 21 15 18 25 28 28 28 29 30 31 28 30 30 33 31 20 23 31 32 30 32
10 12 8 8 5 4 6 10 9 9 8 6 7 12 15 21 24 19 16 20 15 16 15 19 26 21 24 32 35 31 29 30 23 20 26 24 26 26 23 24 26 29 32
10 12 11 10 8 4 5 8 8 7 6 5 4 5 8 12 18 21 18 19 21 23 19 23 26 25 24 29 33 29 32 34 29 22 22 21 23 26 29 30 31 32 34
11 12 12 11 11 7 7 7 7 7 8 6 8 7 7 8 6 8 11 25 29 29 26 26 28 30 28 29 33 36 36 32 24 19 21 23 27 30 34 35 35 36 38
14 14 16 13 13 11 11 10 8 7 8 7 8 8 10 10 8 7 8 8 23 25 24 22 24 17 19 27 29 28 28 25 25 22 24 27 29 33 36 37 40 42 42
16 15 18 15 14 15 15 12 11 10 8 8 8 11 10 10 10 11 10 8 8 9 9 12 16 18 17 19 21 21 22 25 26 28 30 32 34 37 38 39 39 43 44
18 18 19 19 18 17 16 15 15 12 9 9 9 9 11 15 13 12 11 12 13 15 17 19 18 18 20 20 23 20 21 24 25 29 32 35 36 39 41 43 45 44 47
22 21 23 24 23 19 19 18 16 15 15 12 11 11 11 13 17 15 15 17 18 18 20 22 22 23 26 27 25 24 25 28 28 30 32 33 34 38 41 42 46 49 53
23 23 25 25 26 25 23 20 17 18 19 20 17 14 15 15 13 19 22 22 21 22 21 20 20 21 23 28 29 30 30 30 32 34 37 37 39 44 46 49 53 50 59
25 24 27 28 28 29 27 25 22 21 25 23 23 20 18 17 16 17 18 19 21 24 25 27 28 28 30 29 29 31 32 37 39 40 41 41 41 43 46 49 49 50 52
27 28 29 30 31 31 30 28 29 30 28 25 26 25 24 21 24 25 25 25 24 23 25 27 27 26 28 29 28 35 30 37 38 42 44 45 47 46 48 50 51 48 51
29 32 33 33 35 35 34 34 32 33 32 31 30 30 31 32 33 31 33 32 32 31 32 31 29 27 28 26 28 32 33 34 40 43 44 44 45 46 50 52 52 57 54
36 35 36 37 37 37 37 37 36 36 37 36 33 33 33 34 36 37 33 36 35 37 37 37 36 34 32 31 32 36 39 40 42 44 47 49 46 46 54 53 53 51 56
32 35 41 43 43 42 41 42 42 42 42 39 39 37 36 37 38 39 39 38 38 40 40 41 41 42 43 43 41 41 45 46 46 45 45 46 48 47 52 52 51 52 51
33 36 39 41 47 47 48 48 47 48 46 44 44 44 42 42 43 42 40 39 38 39 40 41 42 45 47 48 49 50 50 52 51 52 50 48 48 48 47 57 56 55 55
36 36 36 36 38 43 47 51 53 50 50 48 47 47 46 47 47 42 42 40 38 36 36 41 44 47 47 47 48 50 52 51 52 54 54 53 53 54 54 56 57 59 59
37 38 40 39 39 38 39 45 42 38 55 50 50 50 48 50 50 46 46 46 45 43 39 38 39 43 44 45 48 51 54 55 55 56 57 57 57 58 58 60 61 61 62
42 41 41 41 39 38 40 44 45 45 45 44 51 53 50 49 50 51 51 50 51 52 53 48 45 48 46 50 52 53 51 56 59 61 61 62 63 63 64 64 65 66 59
42 45 48 49 44 41 38 40 46 48 48 47 49 52 52 51 54 56 54 54 54 58 61 59 57 57 52 54 55 55 56 56 57 59 59 61 62 64 64 65 68 69 73
39 42 43 43 48 53 47 44 44 45 49 51 52 56 55 56 58 58 58 59 62 65 70 64 64 64 72 63 60 56 61 57 54 55 61 60 60 63 65 67 66 65 74
40 43 46 47 45 46 50 45 45 46 51 54 57 57 62 62 64 64 67 70 72 71 71 68 69 66 66 72 75 73 71 61 57 59 61 63 66 63 63 65 73 87 81
39 39 41 44 46 46 46 43 45 49 54 55 56 55 56 57 60 64 66 65 65 64 64 65 68 71 70 69 71 77 66 58 59 63 70 74 74 76 73 72 74 74 71
38 44 44 37 37 41 41 44 39 35 55 55 57 53 52 55 59 62 63 64 63 63 63 68 68 73 76 78 74 76 72 72 72 69 67 68 69 73 74 75 78 80 83
Wind_Direction
275 290 303 308 314 311 312 311 304 302 290 268 253 248 253 249 215 222 230 231 234 229 245 236 238 240 226 227 230 230 239 247 255 257 259 267 269 268 263 257 248 253 255
265 276 297 303 315 310 306 313 314 317 305 247 235 239 239 255 234 211 224 233 234 239 242 233 229 236 229 230 232 234 242 246 251 257 263 267 266 262 258 255 257 255 253
261 261 284 298 316 310 306 315 322 337 325 250 218 234 245 249 244 221 222 232 227 216 220 214 217 221 222 229 233 237 242 246 254 263 265 272 266 257 255 255 252 253 257
261 267 271 280 297 309 315 317 325 342 357 297 215 222 243 245 263 260 216 217 224 215 220 237 245 245 239 250 255 257 261 258 266 267 269 266 255 251 244 247 250 250 250
253 259 266 266 231 287 319 320 331 334 357 37 257 246 237 248 258 256 240 241 259 248 241 256 256 260 253 246 250 256 256 261 255 262 268 274 260 248 241 247 247 253 260
244 253 264 262 239 265 310 310 323 330 316 299 277 263 264 273 261 245 252 248 249 241 247 258 260 267 263 251 251 255 263 264 268 249 254 260 261 259 262 264 267 267 268
233 240 259 257 252 246 286 303 302 315 317 294 279 272 269 264 258 265 273 241 244 244 242 246 254 261 261 250 244 255 264 266 253 249 245 252 259 266 268 269 269 268 265
235 233 251 255 257 254 270 280 283 300 308 303 280 279 280 277 280 285 291 252 239 249 253 254 255 258 264 258 253 256 254 256 255 250 250 255 260 265 272 275 272 272 269
231 229 243 248 256 264 272 265 266 276 283 281 287 269 271 275 274 272 262 247 232 228 234 245 251 261 258 257 258 261 264 262 261 260 261 264 267 269 271 269 270 271 269
242 228 236 245 255 266 261 258 266 272 263 265 281 286 275 262 259 263 268 268 254 239 245 255 255 254 254 257 265 268 267 266 267 268 268 265 267 269 268 270 271 274 275
240 236 229 243 252 263 256 255 265 258 266 265 264 269 270 269 265 263 259 257 259 262 266 268 267 265 264 262 261 267 270 273 273 274 274 272 270 271 272 270 270 271 274
236 232 232 240 249 255 259 254 256 264 268 276 272 265 264 256 262 261 267 266 261 256 253 256 264 275 274 263 263 265 265 267 267 263 265 269 272 273 272 274 273 280 279
237 236 236 240 243 247 254 251 257 262 276 277 273 272 270 264 262 262 266 267 262 252 253 257 264 272 259 258 261 264 267 267 262 265 266 270 271 265 273 277 289 285 288
236 237 238 240 243 247 251 256 258 262 267 275 274 274 275 268 275 272 272 266 266 265 268 268 268 269 268 266 275 271 280 261 261 265 268 273 276 277 279 278 279 280 279
230 232 234 237 243 246 252 256 258 259 263 269 275 274 271 265 271 277 278 278 268 263 263 264 262 263 266 272 280 282 276 273 271 271 272 274 275 275 275 281 284 283 278
229 232 236 239 248 250 254 259 258 258 264 270 273 272 274 270 274 274 276 276 273 266 265 267 265 262 264 266 275 279 280 276 274 275 276 275 275 274 284 278 287 284 282
246 248 246 243 246 251 254 256 258 263 267 269 271 271 272 272 273 274 274 271 269 268 270 270 270 271 273 276 280 282 279 277 275 275 274 274 276 275 279 280 280 278 277
246 248 252 252 251 248 246 250 253 258 260 266 270 269 269 270 274 277 273 272 266 268 270 273 275 275 276 277 278 278 277 279 280 279 277 275 273 271 269 277 276 279 279
259 256 253 253 256 258 257 257 255 257 258 260 261 262 263 266 268 268 272 267 266 270 278 278 278 277 276 275 275 277 279 278 278 281 280 280 279 279 277 277 278 279 281
271 269 267 266 262 260 262 261 259 259 253 251 252 255 257 260 262 262 263 263 264 267 268 273 276 272 270 271 272 275 278 276 275 275 277 277 277 277 279 280 281 282 282
276 274 270 265 265 262 258 256 258 259 260 261 260 256 252 256 256 258 260 262 264 269 270 269 271 273 270 271 275 278 280 277 277 276 277 279 279 280 280 280 280 280 278
280 278 275 272 272 268 263 260 257 257 255 255 256 258 250 250 252 254 256 262 263 266 268 270 271 274 274 275 274 273 279 280 277 276 278 279 279 279 280 281 281 281 279
278 278 278 277 271 267 267 262 262 258 258 256 253 255 254 255 251 255 257 258 258 260 263 260 266 266 267 277 274 272 282 275 280 282 276 279 279 278 280 279 280 281 283
279 279 279 276 272 267 262 262 259 257 255 252 253 253 256 256 254 250 253 252 254 259 261 265 268 269 266 268 277 278 272 269 277 279 282 281 278 278 279 279 278 266 266
279 277 276 274 272 268 261 256 263 262 255 255 255 257 260 259 260 258 262 262 260 263 264 267 269 271 270 272 274 279 277 278 278 277 281 280 279 278 279 277 276 271 267
284 281 281 281 277 265 259 251 251 264 253 254 254 257 262 263 264 264 266 265 265 266 269 267 268 268 268 269 269 270 274 274 274 280 281 274 270 266 266 269 273 277 279
Height
5724 5726 5726 5724 5722 5721 5719 5717 5716 5715 5713 5711 5711 5712 5711 5713 5716 5719 5722 5727 5731 5735 5737 5738 5740 5744 5748 5753 5757 5759 5762 5766 5768 5771 5772 5772 5772 5773 5774 5775 5776 5779 5781
5721 5722 5723 5722 5721 5719 5718 5714 5711 5709 5705 5703 5705 5708 5710 5712 5713 5716 5720 5723 5727 5730 5732 5733 5734 5739 5746 5751 5754 5755 5758 5762 5764 5766 5766 5766 5766 5767 5767 5769 5771 5774 5776
5719 5719 5720 5720 5719 5718 5717 5714 5710 5705 5701 5697 5701 5706 5709 5711 5713 5714 5717 5720 5724 5727 5729 5732 5736 5742 5746 5747 5749 5751 5754 5756 5758 5760 5760 5761 5762 5760 5761 5763 5766 5768 5770
5715 5716 5716 5718 5717 5716 5715 5714 5710 5706 5701 5700 5704 5706 5708 5711 5711 5713 5715 5718 5721 5724 5727 5730 5735 5739 5742 5744 5746 5748 5750 5752 5752 5753 5753 5753 5754 5757 5758 5758 5761 5763 5764
5712 5713 5713 5715 5715 5715 5714 5712 5710 5707 5705 5705 5706 5707 5708 5709 5711 5711 5714 5717 5719 5722 5724 5727 5731 5733 5737 5740 5741 5742 5744 5746 5746 5747 5747 5749 5751 5753 5754 5753 5756 5757 5758
5709 5711 5711 5712 5713 5713 5712 5711 5709 5707 5707 5706 5706 5707 5707 5707 5707 5708 5711 5714 5716 5719 5721 5724 5727 5729 5731 5732 5735 5736 5738 5739 5740 5743 5744 5746 5747 5750 5751 5751 5752 5752 5751
5706 5707 5708 5709 5710 5711 5711 5710 5709 5707 5706 5706 5705 5705 5705 5706 5707 5707 5707 5708 5712 5715 5718 5722 5724 5725 5725 5727 5729 5731 5732 5734 5736 5736 5738 5741 5743 5743 5745 5744 5744 5743 5745
5702 5704 5705 5706 5707 5708 5709 5709 5708 5707 5706 5705 5705 5704 5704 5704 5704 5705 5705 5705 5709 5712 5714 5717 5718 5720 5720 5721 5722 5724 5727 5729 5730 5730 5733 5735 5737 5738 5737 5737 5735 5734 5735
5697 5699 5700 5702 5703 5705 5706 5707 5706 5705 5704 5704 5704 5704 5703 5702 5703 5704 5705 5705 5706 5708 5710 5713 5715 5715 5716 5718 5720 5721 5722 5723 5724 5726 5728 5729 5729 5729 5729 5729 5726 5726 5724
5692 5694 5696 5698 5699 5700 5702 5703 5703 5703 5703 5701 5701 5702 5702 5702 5703 5703 5703 5703 5704 5705 5707 5708 5708 5710 5712 5714 5716 5716 5717 5717 5718 5719 5720 5722 5722 5721 5721 5720 5717 5717 5716
5687 5689 5691 5693 5694 5696 5696 5698 5699 5700 5700 5700 5699 5698 5699 5700 5700 5700 5699 5699 5700 5701 5703 5704 5705 5706 5708 5709 5709 5710 5711 5711 5711 5713 5713 5714 5714 5713 5711 5711 5708 5707 5705
5681 5684 5686 5688 5689 5691 5692 5693 5694 5695 5696 5696 5697 5697 5697 5696 5696 5696 5696 5696 5697 5698 5699 5700 5700 5701 5701 5702 5703 5704 5705 5703 5704 5706 5706 5706 5705 5703 5702 5701 5701 5698 5694
5677 5679 5680 5682 5683 5684 5686 5688 5689 5690 5691 5691 5691 5693 5694 5694 5692 5691 5692 5692 5692 5693 5693 5695 5695 5695 5695 5694 5695 5697 5696 5697 5697 5697 5696 5695 5694 5693 5692 5689 5687 5685 5680
5672 5673 5674 5675 5676 5677 5679 5681 5682 5683 5684 5685 5686 5687 5688 5687 5687 5687 5687 5688 5687 5688 5688 5688 5689 5688 5688 5689 5688 5689 5687 5686 5686 5685 5685 5685 5683 5682 5681 5678 5676 5673 5669
5665 5665 5666 5669 5669 5670 5672 5673 5675 5676 5676 5677 5679 5680 5679 5680 5680 5680 5680 5679 5679 5680 5679 5680 5681 5681 5680 5681 5681 5679 5678 5678 5676 5675 5674 5673 5672 5670 5669 5664 5662 5658 5656
5656 5658 5661 5662 5663 5664 5666 5666 5667 5667 5667 5669 5671 5670 5671 5672 5672 5672 5672 5671 5671 5671 5671 5672 5672 5672 5672 5672 5671 5668 5666 5665 5665 5664 5663 5662 5660 5657 5655 5652 5649 5646 5643
5648 5651 5653 5654 5655 5656 5658 5658 5659 5659 5660 5661 5662 5662 5662 5662 5663 5663 5662 5663 5663 5662 5663 5663 5663 5663 5661 5661 5659 5658 5654 5652 5651 5651 5650 5648 5647 5646 5642 5639 5636 5632 5630
5640 5641 5643 5644 5646 5646 5647 5647 5649 5649 5650 5652 5652 5652 5653 5653 5653 5653 5653 5653 5652 5652 5652 5651 5650 5649 5650 5649 5648 5646 5643 5641 5640 5638 5636 5633 5631 5630 5627 5626 5622 5619 5616
5630 5632 5633 5635 5635 5636 5637 5639 5638 5639 5639 5641 5642 5641 5641 5642 5642 5643 5644 5643 5642 5641 5641 5639 5638 5636 5636 5634 5634 5632 5629 5627 5625 5624 5623 5621 5619 5617 5615 5611 5607 5604 5601
5617 5619 5620 5622 5625 5626 5627 5628 5628 5626 5627 5628 5629 5630 5630 5630 5630 5631 5631 5632 5631 5631 5630 5629 5628 5626 5624 5623 5622 5620 5617 5614 5612 5611 5609 5606 5604 5602 5599 5596 5592 5589 5586
5603 5604 5606 5609 5609 5612 5614 5614 5615 5616 5618 5619 5618 5617 5617 5618 5619 5619 5619 5619 5618 5618 5617 5616 5615 5612 5612 5610 5608 5606 5602 5600 5598 5595 5592 5590 5589 5586 5582 5578 5575 5572 5569
5590 5591 5593 5592 5594 5597 5600 5602 5603 5602 5603 5605 5605 5605 5605 5605 5606 5606 5606 5606 5605 5604 5601 5600 5598 5598 5596 5595 5593 5590 5588 5585 5582 5580 5578 5575 5572 5568 5564 5561 5557 5553 5549
5579 5578 5579 5579 5580 5581 5583 5586 5588 5589 5589 5589 5590 5590 5590 5591 5592 5592 5592 5591 5589 5588 5586 5585 5585 5582 5580 5580 5577 5575 5572 5569 5566 5563 5561 5558 5555 5551 5548 5543 5538 5533 5528
5568 5567 5565 5565 5566 5566 5567 5569 5572 5573 5573 5573 5574 5575 5576 5575 5574 5574 5572 5570 5570 5570 5570 5570 5568 5567 5564 5563 5560 5557 5553 5550 5548 5545 5543 5539 5536 5533 5528 5524 5519 5512 5508
5557 5556 5555 5553 5552 5552 5553 5555 5557 5557 5557 5558 5559 5559 5560 5560 5559 5557 5557 5556 5556 5555 5554 5553 5551 5548 5546 5544 5541 5538 5535 5532 5530 5526 5523 5520 5515 5511 5508 5504 5499 5494 5489
5547 5545 5543 5542 5540 5539 5540 5543 5545 5540 5538 5541 5543 5544 5544 5544 5543 5542 5541 5540 5539 5539 5537 5534 5532 5528 5526 5523 5521 5518 5515 5512 5509 5506 5504 5500 5496 5491 5486 5481 5476 5471 5467